Main page
METAR-TAF:

METAR-TAF

Airports :

Abadeh Airport

Abadeh, Iran

latitude: 31-11N, longitude: 052-40E, elevation: 2004 m

Current weather observation

The report was made 55 minutes ago, at 20:00 UTC
Wind 4 kt from the North/Northwest
Temperature 21°C
Humidity 13%
Pressure 1019 hPa
Visibility 10 km or more
no clouds below 1500 m and no cumulonimbus

METAR: OISA 252000Z 34004KT CAVOK 21/M08 Q1018 A3008

Time: 01:25 (20:55 UTC)


TAF: missing

Weather observations and forecasts of more than 4000 airports (METAR and TAF reports).

The available stations are represented by yellow and red dots on the map.

Hover mouse over dot to see the name of the station.

Then click to see weather observations and forecasts.

To change the map : click on the green buttons with a black cross to zoom in, on the green button with a dash to zoom out, or on the green arrows for adjacent maps.


METAR-TAF: